Regional Weather Roundup
Issued by NWS

Home | Current Version | Previous Version | Graphics & Text | Print | Product List | Glossary On
Versions: 1 2 3 4 5 6 7 8 9 10 11 12 13 14 15 16 17 18 19 20 21 22 23 24 25 26 27 28 29 30 31 32 33 34 35 36 37 38 39 40 41 42 43 44 45 46 47 48 49 50
000
ASUS43 KFSD 251202
RWRSD

WEATHER ROUNDUP FOR SOUTH DAKOTA
NATIONAL WEATHER SERVICE SIOUX FALLS SD
600 AM CST SAT FEB 25 2017

NOTE: "FAIR" INDICATES FEW OR NO CLOUDS BELOW 12,000 FEET WITH NO
SIGNIFICANT WEATHER AND/OR OBSTRUCTIONS TO VISIBILITY.


SDZ001>005-009-010-012>017-251300-
NORTHWEST AND NORTH CENTRAL SOUTH DAKOTA

CITY           SKY/WX    TMP DP  RH WIND       PRES   REMARKS
BUFFALO          N/A     24  21  88 W7        29.83F WCI  16
FAITH            N/A     19  18  95 S8        29.92F WCI   9
MOBRIDGE       CLOUDY    24  16  71 S7        29.94F WCI  16
$$

SDZ012>016-024>037-041>051-057-063-072>074-251300-
SOUTHWEST AND SOUTH CENTRAL SOUTH DAKOTA

CITY           SKY/WX    TMP DP  RH WIND       PRES   REMARKS
RAPID CTY ARPT CLOUDY    17  10  74 W7        29.91F WCI   8
PIERRE         CLOUDY    22  14  71 S6        30.00F WCI  14
CUSTER         CLOUDY    14   7  73 W5        29.81F WCI   6
ELLSWORTH AFB  CLOUDY    17  12  81 W6        29.90F WCI   8
PHILIP         PTCLDY    16  13  88 W9        29.97F WCI   4
PINE RIDGE     CLOUDY     4   1  88 SW6       29.95F WCI  -7
SPEARFISH      MOCLDY    25  18  74 SW8       29.89F WCI  16
WINNER         CLOUDY    17  10  74 S10       30.02F WCI   5
$$

SDZ004>011-016>023-039-040-251300-
NORTHEAST SOUTH DAKOTA

CITY           SKY/WX    TMP DP  RH WIND       PRES   REMARKS
ABERDEEN       MOCLDY    13   9  84 S5        30.01F WCI   5
WATERTOWN      CLEAR     12   9  87 SW3       29.98F
BROOKINGS      CLEAR     12   9  87 CALM      30.00F
SISSETON         N/A     14  11  87 CALM      29.99F
$$

SDZ017-020-022-023-036>040-048>070-251300-
SOUTHEAST SOUTH DAKOTA

CITY           SKY/WX    TMP DP  RH WIND       PRES   REMARKS
SIOUX FALLS    CLEAR     13  11  92 W9        30.04S WCI   1
HURON          CLOUDY    18  15  88 SW3       30.05F
CHAMBERLAIN    CLOUDY    21  18  86 SW5       30.05S WCI  15
MITCHELL       CLOUDY    20  15  81 SW6       30.07S WCI  12
YANKTON        CLOUDY    12   7  79 W7        30.09S WCI   2
$$

ABBREVIATIONS USED IN REMARKS
   TC - TEMPERATURE IN CELSIUS
  WCI - WIND CHILL INDEX
   HX - HEAT INDEX
  VSB - VISIBILITY





USA.gov is the U.S. government's official web portal to all federal, state and local government web resources and services.